{"data":{"norad_id":63262,"intl_designator":"2025-052BE","name":"LEMUR-2-MARACHE-FRAN","alt_names":[],"object_type":"PAYLOAD","status":"ACTIVE","operator":null,"country":"US","launch_date":"2025-03-15","launch_site_code":"AFWTR","launch_vehicle":null,"mission":null,"orbit_class":"UNKNOWN","rcs_meters":null,"size_class":null,"mass_kg":null,"dimensions":null,"purposes":["earth_obs"],"wikipedia_slug":null,"has_3d_model":false,"image_url":null,"decayed_at":null,"tle_current":{"epoch":"2026-09-19T03:59:04.215264Z","epoch_age_seconds":129727,"freshness":"FRESH","line1":"1 63262U 25052BE  26262.16602101  .00003247  00000+0  26020-3 0  9996","line2":"2 63262  97.6652 154.6087 0011262  51.1724 309.0504 15.00781671 82859","mean_motion":15.00781671,"eccentricity":0.0011262,"inclination_deg":97.6652,"raan_deg":154.6087,"arg_perigee_deg":51.1724,"mean_anomaly_deg":309.0504,"bstar":0.0002602,"rev_number":8285,"period_min":95.949999112163,"perigee_km":556.66584306462,"apogee_km":572.30340400948,"semimajor_km":6942.6216235371,"source":"CELESTRAK","updated_at":"2026-09-20T09:00:34.874942Z"}}}